SCP
0 0 0 0 0 0 0 0 0 0 0 0 0 0 0 0 0 0 0 0 0 0 0 0 0 0 0 0 0 0 0 0 0 0 0 0 0 0
0 0 0 0 0 0 0 0 0 0 0 0 0 0 0 0 0 0 0 0 0 0 0 0 0 0 0 0 0 0 0 0 0 0 0 -0 0 0
0 0 0 0 0 0 0 0 0 0 0 0 0 0 0 0 0 0 0 0 0 0 0 0 0 0 0 0 0 0 0 0 0 0 0 0 0 0
0 0 0 0 0 0 0 0 0 0 0 0 0 0 0 0 0 0 0 0 0 0 0 0 0 0 0 0 0 0 0 0 0 0 0 0 0 0
0 0 0 0 0 0 0 0 0 0 0 0 0 0 0 0 0 0 0 0 0 0 0 0 0 0 0 0 0 0 0 0 0 0 0 0 0 0
0 0 0 0 0 0 0 0 0 0 0 0 0 0 0 0 0 0 0 0 0 0 0 0 0 0 0 0 0 0 0 0 0 0 0 0 0 0
0 0 0 0 0 0 0 0 0 0 0 0 0 0 0 0 0 0 0 0 0 0 0 0 0 0 0 0 0 0 0 0 0 0 0 0 0 0
0 0 0 0 0 0 0 0 0 0 0 0 0 0 0 0 0 0 0 0 0 0 0 0 0 0 0 0 0 0 0 0 0 0 0 0 0 0
0 0 0 0 0 0 0 0 0 0 0 0 0 0 0 0 0 0 0 0 0 0 0 0 0 0 0 0 -0 -0 -0 -0 -0 -0 -0 -0 0 0
0 0 0 0 0 0 0 0 0 0 0 0 0 0 0 0 0 0 0 0 0 0 0 0 0 0 0 0 -0 -0 -0 -0 -0 -0 0 0 0 0
0 0 0 0 0 0 0 0 0 0 0 0 0 0 0 0 0 0 0 0 0 0 0 0 0 0 0 0 0 -0 -0 -0 -0 -0 -0 -0 -0 -0
0 0 0 0 0 0 0 0 0 0 0 0 0 0 0 0 0 0 -0 0 0 -0 -0 0 0 -0 0 0 -0 -0 -0 -0 -0 -0 -0 -0 0 0
0 0 0 0 0 0 0 0 0 0 0 0 0 0 0 0 0 0 0 0 0 -0 -0 0 0 0 0 0 0 0 0 0 0 0 -0 -0 0 0
0 0 0 0 0 0 0 0 0 0 0 0 0 0 0 0 0 0 0 0 0 0 -0 0 0 0 0 0 0 0 0 0 0 0 0 0 0 0
0 0 0 0 0 0 0 0 0 0 0 0 0 0 0 0 0 0 0 0 0 0 0 0 0 0 0 0 0 0 0 0 0 0 0 0 0 0
0 0 0 0 0 0 0 0 0 0 0 0 0 0 0 0 0 0 0 0 0 0 0 0 0 0 0 0 0 0 0 0 0 0 0 0 0 0
0 0 0 0 0 0 0 0 0 0 0 0 0 0 0 0 0 0 0 0 0 0 0 0 0 0 0 0 0 0 0 0 0 0 0 0 0 0
0 0 0 0 0 0 0 0 0 0 0 0 0 0 0 0 0 0 0 0 0 0 0 0 0 0 0 0 0 0 0 0 0 0 0 0 0 0
0 0 0 0 0 0 0 0 0 0 0 0 0 0 0 0 0 0 0 0 0 0 0 0 0 0 0 0 0 0 0 0 0 0 0 0 0 0
0 0 0 0 0 0 0 0 0 0 0 0 0 0 0 0 0 0 0 0 0 0 0 0 0 0 0 0 0 0 0 0 0 0 0 0 0 0
0 0 0 0 0 0 0 0 0 0 0 0 0 0 0 0 0 0 0 0 0 0 0 0 0 0 0 0 0 0 0 0 0 0 0 0 0 0
0 0 0 0 0 0 0 0 0 0 0 0 0 0 0 0 0 0 0 0 0 0 0 0 0 0 0 0 0 0 0 0 0 0 0 0 0 0
0 0 0 0 0 0 0 0 0 0 0 0 0 0 0 0 0 0 0 0 0 0 0 0 0 0 0 0 0 0 0 0 0 0 0 0 0 0
Wind_Speed_500mb
34 36 42 45 47 50 52 53 56 81 143 89 81 106 104 100 98 96 92 83 66 70 75 74 77 80 83 85 87 85 85 92 91 93 98 98 98 96
40 44 49 55 58 60 61 62 59 62 94 118 122 113 110 108 103 95 84 73 75 74 68 73 77 78 78 82 83 80 83 88 93 95 100 100 89 79
47 53 56 61 63 65 67 67 68 67 80 126 107 110 109 104 103 92 79 81 73 71 73 73 75 73 75 72 75 79 79 79 79 63 60 56 43 8
52 55 59 64 67 69 70 72 72 70 68 92 110 112 107 96 97 91 88 78 76 72 70 68 66 67 69 72 72 73 73 49 4 10 4 21 33 33
56 62 65 68 71 73 74 73 71 65 63 74 101 98 100 90 94 86 83 78 78 76 68 67 66 65 68 62 59 36 2 20 11 19 51 58 57 63
60 64 68 71 74 75 74 72 69 69 69 75 79 92 90 89 81 84 97 80 77 75 70 58 52 46 45 35 7 14 8 12 41 50 54 51 47 44
62 66 69 72 74 74 76 74 71 70 70 76 82 81 88 89 81 85 83 83 83 57 44 39 31 22 15 14 22 30 38 38 35 32 32 32 31 30
67 70 73 76 76 75 74 66 48 63 73 68 72 75 87 83 86 83 81 72 68 40 24 19 15 28 41 39 39 43 33 31 30 31 32 32 32 32
68 74 79 79 78 72 71 66 67 63 51 59 65 68 78 71 73 75 63 55 43 10 7 29 36 49 47 47 42 32 30 30 31 32 32 31 31 30
67 72 77 79 74 69 68 72 68 63 59 54 51 55 58 62 58 48 42 27 4 2 23 51 52 60 58 55 39 29 28 28 28 28 29 29 29 27
69 71 73 70 64 60 63 68 68 64 49 48 44 43 42 39 36 31 20 5 12 15 26 43 49 44 34 32 29 27 23 22 22 24 25 26 26 25
71 71 69 63 61 54 55 52 59 53 55 42 36 32 29 33 30 26 18 8 8 12 7 30 31 20 12 21 18 17 17 18 21 22 22 22 21 21
74 73 71 65 52 45 49 46 44 47 41 33 34 26 25 24 25 25 15 9 11 2 15 18 15 6 6 17 9 8 9 13 15 17 19 21 21 19
72 74 72 62 46 41 48 44 36 37 34 28 22 18 17 17 20 21 21 16 15 8 9 14 16 11 12 19 9 4 4 8 11 14 17 17 17 19
70 71 68 60 44 37 41 38 35 31 27 22 16 17 15 13 16 17 17 17 14 8 3 2 3 6 4 9 9 10 5 5 9 13 14 14 15 16
73 74 67 52 36 35 40 41 35 28 23 20 18 17 15 13 13 12 11 13 12 8 5 1 1 0 4 6 6 8 3 3 7 10 12 13 14 13
67 64 59 51 44 36 38 38 33 30 25 24 22 20 18 15 16 14 14 14 11 9 5 1 1 2 6 10 6 6 2 2 5 8 9 11 12 13
60 55 53 50 46 41 46 41 36 35 31 29 27 25 21 20 18 17 17 16 13 10 7 5 5 5 4 4 6 7 3 3 4 6 7 9 11 11
54 46 44 47 44 43 44 39 38 38 38 37 34 29 25 24 21 21 20 18 15 13 11 10 9 9 9 9 8 7 6 4 4 4 6 6 8 10
46 45 47 47 43 40 39 39 38 40 44 45 41 33 28 25 23 23 22 21 18 17 14 13 12 11 9 9 10 9 8 8 6 6 9 11 11 12
55 55 49 47 44 41 35 39 39 43 46 44 40 33 28 27 27 26 25 22 21 19 16 15 14 13 12 11 10 10 10 9 6 7 8 10 11 11
55 58 54 46 44 43 39 38 46 50 47 44 39 28 32 30 28 27 24 23 21 21 19 18 17 16 14 11 11 11 11 10 11 12 13 14 13 11
53 53 51 46 43 43 40 35 39 41 41 38 33 28 34 31 27 29 24 26 24 22 21 20 20 18 16 13 13 13 12 11 13 15 15 16 19 19
Wind_Direction_500mb
322 324 323 321 320 316 314 314 313 311 309 312 312 313 314 313 312 310 310 309 305 296 293 297 291 289 290 291 289 290 290 290 289 286 287 287 287 286
324 324 322 319 319 317 313 311 308 303 298 305 309 311 313 312 312 312 311 307 305 303 300 293 292 290 292 291 288 291 292 290 291 289 289 290 287 292
324 322 321 318 317 316 316 314 310 307 298 302 305 310 311 313 314 314 311 308 311 308 307 307 300 294 295 294 295 294 294 295 300 306 302 290 273 47
323 321 321 321 323 322 320 317 314 310 303 302 310 314 315 316 314 313 313 311 315 312 313 304 300 299 298 296 297 298 297 293 348 15 240 101 108 98
327 327 326 326 326 327 325 321 318 316 308 301 305 311 312 313 315 312 314 316 317 315 309 308 304 298 299 297 298 299 324 176 202 151 96 102 92 86
327 327 327 328 328 328 328 328 325 320 316 312 307 309 311 315 313 315 315 317 316 314 316 313 310 309 305 307 250 150 175 136 118 110 107 102 98 91
331 329 329 329 327 327 328 327 324 321 318 314 312 312 312 318 320 319 317 316 319 329 312 317 325 336 1 46 125 111 109 105 98 86 78 70 66 65
332 330 329 329 328 327 326 327 318 318 319 322 319 315 316 319 323 321 318 316 320 319 317 345 44 89 93 89 94 108 94 78 67 61 60 63 68 70
329 327 327 326 323 322 325 328 324 331 326 321 315 318 316 321 315 321 322 320 317 300 42 97 112 96 88 101 111 93 75 67 65 64 66 67 67 65
325 324 322 320 320 324 323 321 331 331 337 331 321 316 314 316 320 327 329 324 322 86 131 101 107 108 105 92 79 76 69 67 64 62 60 60 60 60
324 321 318 320 323 327 323 325 330 334 334 326 330 330 330 338 345 348 360 320 96 92 125 112 114 117 118 115 109 89 73 63 61 66 61 55 48 42
324 323 322 320 317 325 328 328 321 327 328 339 344 342 349 357 2 10 11 353 108 122 116 138 130 117 99 104 92 81 66 62 58 52 51 43 37 28
326 326 324 319 317 326 324 314 315 317 321 334 343 348 353 7 16 26 27 345 349 228 173 183 189 229 211 170 131 91 60 58 52 42 32 24 24 33
328 326 323 321 317 316 312 311 310 309 311 325 339 342 349 8 23 32 40 41 35 58 164 215 239 268 287 199 196 186 83 66 51 26 21 30 27 25
328 326 325 324 312 303 315 308 309 309 307 306 314 313 325 336 6 21 26 25 13 8 34 235 241 270 202 249 227 173 124 63 30 21 27 28 27 28
330 329 327 328 314 307 310 302 302 302 295 292 294 297 305 310 334 347 351 346 341 325 332 330 181 50 249 177 162 163 147 350 6 17 17 20 23 26
326 327 328 326 316 304 306 297 291 294 278 284 284 289 289 295 308 309 314 311 300 296 300 263 155 170 165 142 166 162 170 357 5 7 14 6 7 10
326 329 327 321 313 303 308 296 280 285 273 272 276 281 271 282 291 290 291 294 287 275 261 227 180 159 146 147 189 196 215 290 335 359 358 346 351 1
324 319 316 316 308 307 305 292 279 284 273 267 273 272 267 271 269 276 282 280 273 262 249 239 237 242 244 259 225 220 244 278 304 327 331 344 350 359
313 311 311 312 308 303 301 292 283 276 274 266 266 264 264 261 258 273 274 275 273 262 251 249 246 248 245 242 242 241 239 257 284 330 335 341 347 344
312 309 310 303 300 294 290 298 286 278 275 265 260 259 258 256 259 265 264 262 261 256 249 247 248 242 235 233 238 241 252 267 294 316 326 338 338 332
312 309 308 303 294 290 283 286 282 280 273 261 255 251 257 258 260 260 257 257 253 249 244 243 242 241 244 243 243 258 269 285 303 322 333 334 329 315
316 312 309 304 296 286 278 280 282 277 267 258 242 243 254 259 262 257 248 252 244 244 244 243 246 246 246 251 257 264 271 278 297 312 318 318 316 315
Wind_Speed_850mb
34 36 42 45 47 50 52 53 56 81 143 89 81 106 104 100 98 96 92 83 66 70 75 74 77 80 83 85 87 85 85 92 91 93 98 98 98 96
40 44 49 55 58 60 61 62 59 62 94 118 122 113 110 108 103 95 84 73 75 74 68 73 77 78 78 82 83 80 83 88 93 95 100 100 89 79
47 53 56 61 63 65 67 67 68 67 80 126 107 110 109 104 103 92 79 81 73 71 73 73 75 73 75 72 75 79 79 79 79 63 60 56 43 8
52 55 59 64 67 69 70 72 72 70 68 92 110 112 107 96 97 91 88 78 76 72 70 68 66 67 69 72 72 73 73 49 4 10 4 21 33 33
56 62 65 68 71 73 74 73 71 65 63 74 101 98 100 90 94 86 83 78 78 76 68 67 66 65 68 62 59 36 2 20 11 19 51 58 57 63
60 64 68 71 74 75 74 72 69 69 69 75 79 92 90 89 81 84 97 80 77 75 70 58 52 46 45 35 7 14 8 12 41 50 54 51 47 44
62 66 69 72 74 74 76 74 71 70 70 76 82 81 88 89 81 85 83 83 83 57 44 39 31 22 15 14 22 30 38 38 35 32 32 32 31 30
67 70 73 76 76 75 74 66 48 63 73 68 72 75 87 83 86 83 81 72 68 40 24 19 15 28 41 39 39 43 33 31 30 31 32 32 32 32
68 74 79 79 78 72 71 66 67 63 51 59 65 68 78 71 73 75 63 55 43 10 7 29 36 49 47 47 42 32 30 30 31 32 32 31 31 30
67 72 77 79 74 69 68 72 68 63 59 54 51 55 58 62 58 48 42 27 4 2 23 51 52 60 58 55 39 29 28 28 28 28 29 29 29 27
69 71 73 70 64 60 63 68 68 64 49 48 44 43 42 39 36 31 20 5 12 15 26 43 49 44 34 32 29 27 23 22 22 24 25 26 26 25
71 71 69 63 61 54 55 52 59 53 55 42 36 32 29 33 30 26 18 8 8 12 7 30 31 20 12 21 18 17 17 18 21 22 22 22 21 21
74 73 71 65 52 45 49 46 44 47 41 33 34 26 25 24 25 25 15 9 11 2 15 18 15 6 6 17 9 8 9 13 15 17 19 21 21 19
72 74 72 62 46 41 48 44 36 37 34 28 22 18 17 17 20 21 21 16 15 8 9 14 16 11 12 19 9 4 4 8 11 14 17 17 17 19
70 71 68 60 44 37 41 38 35 31 27 22 16 17 15 13 16 17 17 17 14 8 3 2 3 6 4 9 9 10 5 5 9 13 14 14 15 16
73 74 67 52 36 35 40 41 35 28 23 20 18 17 15 13 13 12 11 13 12 8 5 1 1 0 4 6 6 8 3 3 7 10 12 13 14 13
67 64 59 51 44 36 38 38 33 30 25 24 22 20 18 15 16 14 14 14 11 9 5 1 1 2 6 10 6 6 2 2 5 8 9 11 12 13
60 55 53 50 46 41 46 41 36 35 31 29 27 25 21 20 18 17 17 16 13 10 7 5 5 5 4 4 6 7 3 3 4 6 7 9 11 11
54 46 44 47 44 43 44 39 38 38 38 37 34 29 25 24 21 21 20 18 15 13 11 10 9 9 9 9 8 7 6 4 4 4 6 6 8 10
46 45 47 47 43 40 39 39 38 40 44 45 41 33 28 25 23 23 22 21 18 17 14 13 12 11 9 9 10 9 8 8 6 6 9 11 11 12
55 55 49 47 44 41 35 39 39 43 46 44 40 33 28 27 27 26 25 22 21 19 16 15 14 13 12 11 10 10 10 9 6 7 8 10 11 11
55 58 54 46 44 43 39 38 46 50 47 44 39 28 32 30 28 27 24 23 21 21 19 18 17 16 14 11 11 11 11 10 11 12 13 14 13 11
53 53 51 46 43 43 40 35 39 41 41 38 33 28 34 31 27 29 24 26 24 22 21 20 20 18 16 13 13 13 12 11 13 15 15 16 19 19
Wind_Direction_850mb
322 324 323 321 320 316 314 314 313 311 309 312 312 313 314 313 312 310 310 309 305 296 293 297 291 289 290 291 289 290 290 290 289 286 287 287 287 286
324 324 322 319 319 317 313 311 308 303 298 305 309 311 313 312 312 312 311 307 305 303 300 293 292 290 292 291 288 291 292 290 291 289 289 290 287 292
324 322 321 318 317 316 316 314 310 307 298 302 305 310 311 313 314 314 311 308 311 308 307 307 300 294 295 294 295 294 294 295 300 306 302 290 273 47
323 321 321 321 323 322 320 317 314 310 303 302 310 314 315 316 314 313 313 311 315 312 313 304 300 299 298 296 297 298 297 293 348 15 240 101 108 98
327 327 326 326 326 327 325 321 318 316 308 301 305 311 312 313 315 312 314 316 317 315 309 308 304 298 299 297 298 299 324 176 202 151 96 102 92 86
327 327 327 328 328 328 328 328 325 320 316 312 307 309 311 315 313 315 315 317 316 314 316 313 310 309 305 307 250 150 175 136 118 110 107 102 98 91
331 329 329 329 327 327 328 327 324 321 318 314 312 312 312 318 320 319 317 316 319 329 312 317 325 336 1 46 125 111 109 105 98 86 78 70 66 65
332 330 329 329 328 327 326 327 318 318 319 322 319 315 316 319 323 321 318 316 320 319 317 345 44 89 93 89 94 108 94 78 67 61 60 63 68 70
329 327 327 326 323 322 325 328 324 331 326 321 315 318 316 321 315 321 322 320 317 300 42 97 112 96 88 101 111 93 75 67 65 64 66 67 67 65
325 324 322 320 320 324 323 321 331 331 337 331 321 316 314 316 320 327 329 324 322 86 131 101 107 108 105 92 79 76 69 67 64 62 60 60 60 60
324 321 318 320 323 327 323 325 330 334 334 326 330 330 330 338 345 348 360 320 96 92 125 112 114 117 118 115 109 89 73 63 61 66 61 55 48 42
324 323 322 320 317 325 328 328 321 327 328 339 344 342 349 357 2 10 11 353 108 122 116 138 130 117 99 104 92 81 66 62 58 52 51 43 37 28
326 326 324 319 317 326 324 314 315 317 321 334 343 348 353 7 16 26 27 345 349 228 173 183 189 229 211 170 131 91 60 58 52 42 32 24 24 33
328 326 323 321 317 316 312 311 310 309 311 325 339 342 349 8 23 32 40 41 35 58 164 215 239 268 287 199 196 186 83 66 51 26 21 30 27 25
328 326 325 324 312 303 315 308 309 309 307 306 314 313 325 336 6 21 26 25 13 8 34 235 241 270 202 249 227 173 124 63 30 21 27 28 27 28
330 329 327 328 314 307 310 302 302 302 295 292 294 297 305 310 334 347 351 346 341 325 332 330 181 50 249 177 162 163 147 350 6 17 17 20 23 26
326 327 328 326 316 304 306 297 291 294 278 284 284 289 289 295 308 309 314 311 300 296 300 263 155 170 165 142 166 162 170 357 5 7 14 6 7 10
326 329 327 321 313 303 308 296 280 285 273 272 276 281 271 282 291 290 291 294 287 275 261 227 180 159 146 147 189 196 215 290 335 359 358 346 351 1
324 319 316 316 308 307 305 292 279 284 273 267 273 272 267 271 269 276 282 280 273 262 249 239 237 242 244 259 225 220 244 278 304 327 331 344 350 359
313 311 311 312 308 303 301 292 283 276 274 266 266 264 264 261 258 273 274 275 273 262 251 249 246 248 245 242 242 241 239 257 284 330 335 341 347 344
312 309 310 303 300 294 290 298 286 278 275 265 260 259 258 256 259 265 264 262 261 256 249 247 248 242 235 233 238 241 252 267 294 316 326 338 338 332
312 309 308 303 294 290 283 286 282 280 273 261 255 251 257 258 260 260 257 257 253 249 244 243 242 241 244 243 243 258 269 285 303 322 333 334 329 315
316 312 309 304 296 286 278 280 282 277 267 258 242 243 254 259 262 257 248 252 244 244 244 243 246 246 246 251 257 264 271 278 297 312 318 318 316 315